Tracking 18980 objects as of 19-Feb-2018
HD Live streaming from Space Station
objects crossing your sky now

MIDAS 4

Track MIDAS 4 now!
10-day predictions
MIDAS 4 is classified as:


NORAD ID: 192
Int'l Code: 1961-028A
Perigee: 3,492.2 km
Apogee: 3,772.1 km
Inclination: 95.9 °
Period: 165.9 minutes
Semi major axis: 10003 km
RCS: 10.3526 m2 (large)
Launch date: October 21, 1961
Source: United States (US)
Launch site: AIR FORCE WESTERN TEST RANGE (AFWTR)
aabbcc
Your satellite tracking list
Your tracking list is empty




NASA's NSSDC Master Catalog

Two Line Element Set (TLE):
1   192U 61028A   18049.07788623 -.00000004 +00000-0 -20120-3 0  9996
2   192 095.8683 303.9356 0139927 063.0365 298.4703 08.67757258784362
Source of the keplerian elements: AFSPC